Regional Weather Roundup
Issued by NWS

Home | Current Version | Previous Version | Graphics & Text | Print | Product List | Glossary On
Versions: 1 2 3 4 5 6 7 8 9 10 11 12 13 14 15 16 17 18 19 20 21 22 23 24 25 26 27 28 29 30 31 32 33 34 35 36 37 38 39 40 41 42 43 44 45 46 47 48 49 50
000
ASUS43 KOAX 230710
RWRNE

WEATHER ROUNDUP FOR NEBRASKA
NATIONAL WEATHER SERVICE OMAHA NE
200 AM CDT TUE MAY 23 2017

NOTES: SATELLITE DATA IS BEING USED TO AUGMENT CLOUD COVER ABOVE
       12000 FEET.
       "FAIR" INDICATES FEW OR NO CLOUDS BELOW 12,000 FEET WITH NO
       SIGNIFICANT WEATHER AND/OR OBSTRUCTIONS TO VISIBILITY.

  * THESE STATIONS DO NOT REPORT WEATHER SUCH AS RAIN...SNOW OR FOG.

NEZ001>004-019>022-054>056-230800-
NEBRASKA PANHANDLE

CITY           SKY/WX    TMP DP  RH WIND       PRES   REMARKS
SCOTTSBLUFF    CLOUDY    40  36  86 NW7       30.19F
ALLIANCE       CLOUDY    40  38  93 W9        30.15S WCI  34
CHADRON        CLOUDY    45  41  86 W7        30.15F
GORDON         CLOUDY    45  40  85 W8        30.12F
KIMBALL        MOCLDY    38  36  90 NW8       30.21S WCI  32
SIDNEY         CLEAR     36  34  92 W9        30.18F WCI  29
$$

NEZ057>060-069>072-079>082-230800-
SOUTHWEST NEBRASKA

CITY           SKY/WX    TMP DP  RH WIND       PRES   REMARKS
NORTH PLATTE   CLEAR     42  41  96 NW8       30.09F
IMPERIAL       CLEAR     44  39  82 NW15      30.13F
LEXINGTON      CLEAR     47  45  93 W8        30.06S
MCCOOK         CLEAR     46  44  93 NW12      30.09F
OGALLALA       CLEAR     43  41  91 NW9       30.13F
$$

NEZ005>010-023>029-035>040-094-230800-
NORTH CENTRAL NEBRASKA

CITY           SKY/WX    TMP DP  RH WIND       PRES   REMARKS
VALENTINE      CLOUDY    47  42  83 W10       30.06F
AINSWORTH      CLOUDY    46  44  90 NW7       30.05S
BROKEN BOW     CLEAR     47  43  86 NW10      30.04S
O`NEILL        CLOUDY    48  42  79 NW9       30.00F
ORD            MOCLDY    46  41  82 NW9       30.01F
THEDFORD       CLEAR     42  40  93 W7        30.09S
$$

NEZ041-046>049-061>064-073>077-083>087-230800-
SOUTH CENTRAL NEBRASKA

CITY           SKY/WX    TMP DP  RH WIND       PRES   REMARKS
GRAND ISLAND   CLOUDY    51  45  79 NW7       30.02F
AURORA         CLOUDY    52  46  82 NW8       30.00F
HASTINGS       CLOUDY    52  46  80 N10       30.02F
HEBRON         LGT RAIN  54  52  92 NW5       29.99F
HOLDREGE       CLOUDY    49  45  86 N8        30.04S
KEARNEY *      CLOUDY    50  43  76 NW7       30.04F
YORK           CLOUDY    52  45  76 NW12      29.99F
$$

NEZ011>018-030>034-042>045-230800-
NORTHEAST NEBRASKA

CITY           SKY/WX    TMP DP  RH WIND       PRES   REMARKS
NORFOLK        CLEAR     47  43  86 W7        29.96S
ALBION         CLEAR     46  42  86 NW3       30.00S
BLAIR          CLOUDY    52  46  82 NW6       29.92S
FREMONT        CLOUDY    51  46  84 NW10      29.94S
WAYNE          CLEAR     47  46  99 W7        29.94F
$$

NEZ050>053-065>068-078-088>093-230800-
SOUTHEAST NEBRASKA

CITY           SKY/WX    TMP DP  RH WIND       PRES   REMARKS
LINCOLN        CLOUDY    54  47  77 NW13      29.96R
OMAHA EPPLEY   CLOUDY    53  45  74 N9        29.91F
BEATRICE       PTCLDY    54  51  89 NW10      29.95R
FALLS CITY     PTCLDY    54  52  93 W8        29.88R
NEBRASKA CITY  MOCLDY    54  48  79 N13       29.90S
PLATTSMOUTH    CLOUDY    55  45  69 NW12      29.91S
$$

NEZ044-045-051>053-067-230800-
OMAHA AREA

CITY           SKY/WX    TMP DP  RH WIND       PRES   REMARKS
OMAHA EPPLEY   CLOUDY    53  45  74 N9        29.91F
BLAIR          CLOUDY    52  46  82 NW6       29.92S
FREMONT        CLOUDY    51  46  84 NW10      29.94S
MILLARD        CLOUDY    56  48  74 NW7       29.92S
OFFUTT AFB     CLOUDY    54  46  72 N10       29.90S
PLATTSMOUTH    CLOUDY    55  45  69 NW12      29.91S
WAHOO          FAIR      52  46  79 NW10      29.94S
$$




USA.gov is the U.S. government's official web portal to all federal, state and local government web resources and services.